owner,sensor,date,latitude,longitude,sea_surface_height_above_sea_level,qcFlag 
COMPS,ioos:station:USF.COMPS:BGC:1,2011-07-14T20:00:00Z,26.4040,-81.8810,-0.002,1111122 
COMPS,ioos:station:USF.COMPS:BGC:1,2011-07-14T20:06:00Z,26.4040,-81.8810,-0.011,1111122 
COMPS,ioos:station:USF.COMPS:BGC:1,2011-07-14T20:12:00Z,26.4040,-81.8810,-0.027,1111122 
COMPS,ioos:station:USF.COMPS:BGC:1,2011-07-14T20:18:00Z,26.4040,-81.8810,-0.046,1111122 
COMPS,ioos:station:USF.COMPS:BGC:1,2011-07-14T20:24:00Z,26.4040,-81.8810,-0.064,1111122 
COMPS,ioos:station:USF.COMPS:BGC:1,2011-07-14T20:30:00Z,26.4040,-81.8810,-0.081,1111122 
COMPS,ioos:station:USF.COMPS:BGC:1,2011-07-14T20:36:00Z,26.4040,-81.8810,-0.099,1111122 
COMPS,ioos:station:USF.COMPS:BGC:1,2011-07-14T20:42:00Z,26.4040,-81.8810,-0.115,1111122 
COMPS,ioos:station:USF.COMPS:BGC:1,2011-07-14T20:48:00Z,26.4040,-81.8810,-0.144,1111122 
COMPS,ioos:station:USF.COMPS:BGC:1,2011-07-14T20:54:00Z,26.4040,-81.8810,-0.146,1111122 
COMPS,ioos:station:USF.COMPS:BGC:1,2011-07-14T21:00:00Z,26.4040,-81.8810,-0.171,1111122 
COMPS,ioos:station:USF.COMPS:BGC:1,2011-07-14T21:06:00Z,26.4040,-81.8810,-0.187,1111122 
COMPS,ioos:station:USF.COMPS:BGC:1,2011-07-14T21:12:00Z,26.4040,-81.8810,-0.203,1111122 
COMPS,ioos:station:USF.COMPS:BGC:1,2011-07-14T21:18:00Z,26.4040,-81.8810,-0.22,1111122 
COMPS,ioos:station:USF.COMPS:BGC:1,2011-07-14T21:24:00Z,26.4040,-81.8810,-0.233,1111122 
COMPS,ioos:station:USF.COMPS:BGC:1,2011-07-14T21:30:00Z,26.4040,-81.8810,-0.256,1111122 
COMPS,ioos:station:USF.COMPS:BGC:1,2011-07-14T21:36:00Z,26.4040,-81.8810,-0.271,1111122 
COMPS,ioos:station:USF.COMPS:BGC:1,2011-07-14T21:42:00Z,26.4040,-81.8810,-0.285,1111122 
COMPS,ioos:station:USF.COMPS:BGC:1,2011-07-14T21:48:00Z,26.4040,-81.8810,-0.297,1111122 
COMPS,ioos:station:USF.COMPS:BGC:1,2011-07-14T21:54:00Z,26.4040,-81.8810,-0.308,1111122 
COMPS,ioos:station:USF.COMPS:BGC:1,2011-07-14T22:00:00Z,26.4040,-81.8810,-0.327,1111122 
COMPS,ioos:station:USF.COMPS:BGC:1,2011-07-14T22:06:00Z,26.4040,-81.8810,-0.342,1111122 
COMPS,ioos:station:USF.COMPS:BGC:1,2011-07-14T22:12:00Z,26.4040,-81.8810,-0.356,1111122 
COMPS,ioos:station:USF.COMPS:BGC:1,2011-07-14T22:18:00Z,26.4040,-81.8810,-0.364,1111122 
COMPS,ioos:station:USF.COMPS:BGC:1,2011-07-14T22:24:00Z,26.4040,-81.8810,-0.38,1111122 
COMPS,ioos:station:USF.COMPS:BGC:1,2011-07-14T22:30:00Z,26.4040,-81.8810,-0.392,1111122 
COMPS,ioos:station:USF.COMPS:BGC:1,2011-07-14T22:36:00Z,26.4040,-81.8810,-0.406,1111122 
COMPS,ioos:station:USF.COMPS:BGC:1,2011-07-14T22:42:00Z,26.4040,-81.8810,-0.419,1111122 
COMPS,ioos:station:USF.COMPS:BGC:1,2011-07-14T22:48:00Z,26.4040,-81.8810,-0.429,1111122 
COMPS,ioos:station:USF.COMPS:BGC:1,2011-07-14T22:54:00Z,26.4040,-81.8810,-0.439,1111122 
COMPS,ioos:station:USF.COMPS:BGC:1,2011-07-14T23:00:00Z,26.4040,-81.8810,-0.453,1111122 
COMPS,ioos:station:USF.COMPS:BGC:1,2011-07-14T23:06:00Z,26.4040,-81.8810,-0.46,1111122 
COMPS,ioos:station:USF.COMPS:BGC:1,2011-07-14T23:12:00Z,26.4040,-81.8810,-0.472,1111122 
COMPS,ioos:station:USF.COMPS:BGC:1,2011-07-14T23:18:00Z,26.4040,-81.8810,-0.48,1111122 
COMPS,ioos:station:USF.COMPS:BGC:1,2011-07-14T23:24:00Z,26.4040,-81.8810,-0.487,1111122 
COMPS,ioos:station:USF.COMPS:BGC:1,2011-07-14T23:30:00Z,26.4040,-81.8810,-0.499,1111122 
COMPS,ioos:station:USF.COMPS:BGC:1,2011-07-14T23:36:00Z,26.4040,-81.8810,-0.504,1111122 
COMPS,ioos:station:USF.COMPS:BGC:1,2011-07-14T23:42:00Z,26.4040,-81.8810,-0.503,1111122 
COMPS,ioos:station:USF.COMPS:BGC:1,2011-07-14T23:48:00Z,26.4040,-81.8810,-0.508,1111122 
COMPS,ioos:station:USF.COMPS:BGC:1,2011-07-14T23:54:00Z,26.4040,-81.8810,-0.514,1111122 
COMPS,ioos:station:USF.COMPS:BGC:1,2011-07-15T00:00:00Z,26.4040,-81.8810,-0.515,1111122 
COMPS,ioos:station:USF.COMPS:BGC:1,2011-07-15T00:06:00Z,26.4040,-81.8810,-0.516,1111122 
COMPS,ioos:station:USF.COMPS:BGC:1,2011-07-15T00:12:00Z,26.4040,-81.8810,-0.517,1111122 
COMPS,ioos:station:USF.COMPS:BGC:1,2011-07-15T00:18:00Z,26.4040,-81.8810,-0.524,1111122 
COMPS,ioos:station:USF.COMPS:BGC:1,2011-07-15T00:24:00Z,26.4040,-81.8810,-0.519,1111122 
COMPS,ioos:station:USF.COMPS:BGC:1,2011-07-15T00:30:00Z,26.4040,-81.8810,-0.513,1111122 
COMPS,ioos:station:USF.COMPS:BGC:1,2011-07-15T00:36:00Z,26.4040,-81.8810,-0.506,1111122 
COMPS,ioos:station:USF.COMPS:BGC:1,2011-07-15T00:42:00Z,26.4040,-81.8810,-0.496,1111122 
COMPS,ioos:station:USF.COMPS:BGC:1,2011-07-15T00:48:00Z,26.4040,-81.8810,-0.48,1111122 
COMPS,ioos:station:USF.COMPS:BGC:1,2011-07-15T00:54:00Z,26.4040,-81.8810,-0.463,1111122 
COMPS,ioos:station:USF.COMPS:BGC:1,2011-07-15T01:00:00Z,26.4040,-81.8810,-0.451,1111122 
COMPS,ioos:station:USF.COMPS:BGC:1,2011-07-15T01:06:00Z,26.4040,-81.8810,-0.438,1111122 
COMPS,ioos:station:USF.COMPS:BGC:1,2011-07-15T01:12:00Z,26.4040,-81.8810,-0.425,1111122 
COMPS,ioos:station:USF.COMPS:BGC:1,2011-07-15T01:18:00Z,26.4040,-81.8810,-0.415,1111122 
COMPS,ioos:station:USF.COMPS:BGC:1,2011-07-15T01:24:00Z,26.4040,-81.8810,-0.417,1111122 
COMPS,ioos:station:USF.COMPS:BGC:1,2011-07-15T01:30:00Z,26.4040,-81.8810,-0.399,1111122 
COMPS,ioos:station:USF.COMPS:BGC:1,2011-07-15T01:36:00Z,26.4040,-81.8810,-0.393,1111122 
COMPS,ioos:station:USF.COMPS:BGC:1,2011-07-15T01:42:00Z,26.4040,-81.8810,-0.38,1111122 
COMPS,ioos:station:USF.COMPS:BGC:1,2011-07-15T01:48:00Z,26.4040,-81.8810,-0.37,1111122 
COMPS,ioos:station:USF.COMPS:BGC:1,2011-07-15T01:54:00Z,26.4040,-81.8810,-0.353,1111122 
COMPS,ioos:station:USF.COMPS:BGC:1,2011-07-15T02:00:00Z,26.4040,-81.8810,-0.337,1111122 
COMPS,ioos:station:USF.COMPS:BGC:1,2011-07-15T02:06:00Z,26.4040,-81.8810,-0.318,1111122 
COMPS,ioos:station:USF.COMPS:BGC:1,2011-07-15T02:12:00Z,26.4040,-81.8810,-0.304,1111122 
COMPS,ioos:station:USF.COMPS:BGC:1,2011-07-15T02:18:00Z,26.4040,-81.8810,-0.298,1111122 
COMPS,ioos:station:USF.COMPS:BGC:1,2011-07-15T02:24:00Z,26.4040,-81.8810,-0.273,1111122 
COMPS,ioos:station:USF.COMPS:BGC:1,2011-07-15T02:30:00Z,26.4040,-81.8810,-0.262,1111122 
COMPS,ioos:station:USF.COMPS:BGC:1,2011-07-15T02:36:00Z,26.4040,-81.8810,-0.241,1111122 
COMPS,ioos:station:USF.COMPS:BGC:1,2011-07-15T02:42:00Z,26.4040,-81.8810,-0.223,1111122 
COMPS,ioos:station:USF.COMPS:BGC:1,2011-07-15T02:48:00Z,26.4040,-81.8810,-0.2,1111122 
COMPS,ioos:station:USF.COMPS:BGC:1,2011-07-15T02:54:00Z,26.4040,-81.8810,-0.194,1111122 
COMPS,ioos:station:USF.COMPS:BGC:1,2011-07-15T03:00:00Z,26.4040,-81.8810,-0.18,1111122 
COMPS,ioos:station:USF.COMPS:BGC:1,2011-07-15T03:06:00Z,26.4040,-81.8810,-0.166,1111122 
COMPS,ioos:station:USF.COMPS:BGC:1,2011-07-15T03:12:00Z,26.4040,-81.8810,-0.145,1111122 
COMPS,ioos:station:USF.COMPS:BGC:1,2011-07-15T03:18:00Z,26.4040,-81.8810,-0.134,1111122 
COMPS,ioos:station:USF.COMPS:BGC:1,2011-07-15T03:24:00Z,26.4040,-81.8810,-0.113,1111122 
COMPS,ioos:station:USF.COMPS:BGC:1,2011-07-15T03:30:00Z,26.4040,-81.8810,-0.101,1111122 
COMPS,ioos:station:USF.COMPS:BGC:1,2011-07-15T03:36:00Z,26.4040,-81.8810,-0.082,1111122 
COMPS,ioos:station:USF.COMPS:BGC:1,2011-07-15T03:42:00Z,26.4040,-81.8810,-0.065,1111122 
COMPS,ioos:station:USF.COMPS:BGC:1,2011-07-15T03:48:00Z,26.4040,-81.8810,-0.056,1111122 
COMPS,ioos:station:USF.COMPS:BGC:1,2011-07-15T03:54:00Z,26.4040,-81.8810,-0.043,1111122 
COMPS,ioos:station:USF.COMPS:BGC:1,2011-07-15T04:00:00Z,26.4040,-81.8810,-0.024,1111122 
COMPS,ioos:station:USF.COMPS:BGC:1,2011-07-15T04:06:00Z,26.4040,-81.8810,-0.016,1111122 
COMPS,ioos:station:USF.COMPS:BGC:1,2011-07-15T04:12:00Z,26.4040,-81.8810,-0.002,1111122 
COMPS,ioos:station:USF.COMPS:BGC:1,2011-07-15T04:18:00Z,26.4040,-81.8810,0.012,1111122 
COMPS,ioos:station:USF.COMPS:BGC:1,2011-07-15T04:24:00Z,26.4040,-81.8810,0.035,1111122 
COMPS,ioos:station:USF.COMPS:BGC:1,2011-07-15T04:30:00Z,26.4040,-81.8810,0.038,1111122 
COMPS,ioos:station:USF.COMPS:BGC:1,2011-07-15T04:36:00Z,26.4040,-81.8810,0.056,1111122 
COMPS,ioos:station:USF.COMPS:BGC:1,2011-07-15T04:42:00Z,26.4040,-81.8810,0.058,1111122 
COMPS,ioos:station:USF.COMPS:BGC:1,2011-07-15T04:48:00Z,26.4040,-81.8810,0.064,1111122 
COMPS,ioos:station:USF.COMPS:BGC:1,2011-07-15T04:54:00Z,26.4040,-81.8810,0.079,1111122 
COMPS,ioos:station:USF.COMPS:BGC:1,2011-07-15T05:00:00Z,26.4040,-81.8810,0.086,1111122 
COMPS,ioos:station:USF.COMPS:BGC:1,2011-07-15T05:06:00Z,26.4040,-81.8810,0.098,1111122 
COMPS,ioos:station:USF.COMPS:BGC:1,2011-07-15T05:12:00Z,26.4040,-81.8810,0.096,1111122 
COMPS,ioos:station:USF.COMPS:BGC:1,2011-07-15T05:18:00Z,26.4040,-81.8810,0.124,1111122 
COMPS,ioos:station:USF.COMPS:BGC:1,2011-07-15T05:24:00Z,26.4040,-81.8810,0.124,1111122 
COMPS,ioos:station:USF.COMPS:BGC:1,2011-07-15T05:30:00Z,26.4040,-81.8810,0.13,1111122 
COMPS,ioos:station:USF.COMPS:BGC:1,2011-07-15T05:36:00Z,26.4040,-81.8810,0.138,1111122 
COMPS,ioos:station:USF.COMPS:BGC:1,2011-07-15T05:42:00Z,26.4040,-81.8810,0.149,1111122 
COMPS,ioos:station:USF.COMPS:BGC:1,2011-07-15T05:48:00Z,26.4040,-81.8810,0.147,1111122 
COMPS,ioos:station:USF.COMPS:BGC:1,2011-07-15T05:54:00Z,26.4040,-81.8810,0.144,1111122 
COMPS,ioos:station:USF.COMPS:BGC:1,2011-07-15T06:00:00Z,26.4040,-81.8810,0.158,1111122 
COMPS,ioos:station:USF.COMPS:BGC:1,2011-07-15T06:06:00Z,26.4040,-81.8810,0.173,1111122 
COMPS,ioos:station:USF.COMPS:BGC:1,2011-07-15T06:12:00Z,26.4040,-81.8810,0.165,1111122 
COMPS,ioos:station:USF.COMPS:BGC:1,2011-07-15T06:18:00Z,26.4040,-81.8810,0.179,1111122 
COMPS,ioos:station:USF.COMPS:BGC:1,2011-07-15T06:24:00Z,26.4040,-81.8810,0.189,1111122 
COMPS,ioos:station:USF.COMPS:BGC:1,2011-07-15T06:30:00Z,26.4040,-81.8810,0.182,1111122 
COMPS,ioos:station:USF.COMPS:BGC:1,2011-07-15T06:36:00Z,26.4040,-81.8810,0.173,1111122 
COMPS,ioos:station:USF.COMPS:BGC:1,2011-07-15T06:42:00Z,26.4040,-81.8810,0.189,1111122 
COMPS,ioos:station:USF.COMPS:BGC:1,2011-07-15T06:48:00Z,26.4040,-81.8810,0.189,1111122 
COMPS,ioos:station:USF.COMPS:BGC:1,2011-07-15T06:54:00Z,26.4040,-81.8810,0.188,1111122 
COMPS,ioos:station:USF.COMPS:BGC:1,2011-07-15T07:00:00Z,26.4040,-81.8810,0.189,1111122 
COMPS,ioos:station:USF.COMPS:BGC:1,2011-07-15T07:06:00Z,26.4040,-81.8810,0.183,1111122 
COMPS,ioos:station:USF.COMPS:BGC:1,2011-07-15T07:12:00Z,26.4040,-81.8810,0.182,1111122 
COMPS,ioos:station:USF.COMPS:BGC:1,2011-07-15T07:18:00Z,26.4040,-81.8810,0.167,1111122 
COMPS,ioos:station:USF.COMPS:BGC:1,2011-07-15T07:24:00Z,26.4040,-81.8810,0.147,1111122 
COMPS,ioos:station:USF.COMPS:BGC:1,2011-07-15T07:30:00Z,26.4040,-81.8810,0.153,1111122 
COMPS,ioos:station:USF.COMPS:BGC:1,2011-07-15T07:36:00Z,26.4040,-81.8810,0.157,1111122 
COMPS,ioos:station:USF.COMPS:BGC:1,2011-07-15T07:42:00Z,26.4040,-81.8810,0.15,1111122 
COMPS,ioos:station:USF.COMPS:BGC:1,2011-07-15T07:48:00Z,26.4040,-81.8810,0.126,1111122 
COMPS,ioos:station:USF.COMPS:BGC:1,2011-07-15T07:54:00Z,26.4040,-81.8810,0.126,1111122 
COMPS,ioos:station:USF.COMPS:BGC:1,2011-07-15T08:00:00Z,26.4040,-81.8810,0.129,1111122 
COMPS,ioos:station:USF.COMPS:BGC:1,2011-07-15T08:06:00Z,26.4040,-81.8810,0.103,1111122 
COMPS,ioos:station:USF.COMPS:BGC:1,2011-07-15T08:12:00Z,26.4040,-81.8810,0.087,1111122 
COMPS,ioos:station:USF.COMPS:BGC:1,2011-07-15T08:18:00Z,26.4040,-81.8810,0.093,1111122 
COMPS,ioos:station:USF.COMPS:BGC:1,2011-07-15T08:24:00Z,26.4040,-81.8810,0.087,1111122 
COMPS,ioos:station:USF.COMPS:BGC:1,2011-07-15T08:30:00Z,26.4040,-81.8810,0.071,1111122 
COMPS,ioos:station:USF.COMPS:BGC:1,2011-07-15T08:36:00Z,26.4040,-81.8810,0.062,1111122 
COMPS,ioos:station:USF.COMPS:BGC:1,2011-07-15T08:42:00Z,26.4040,-81.8810,0.066,1111122 
COMPS,ioos:station:USF.COMPS:BGC:1,2011-07-15T08:48:00Z,26.4040,-81.8810,0.056,1111122 
COMPS,ioos:station:USF.COMPS:BGC:1,2011-07-15T08:54:00Z,26.4040,-81.8810,0.047,1111122 
COMPS,ioos:station:USF.COMPS:BGC:1,2011-07-15T09:00:00Z,26.4040,-81.8810,0.049,1111122 
COMPS,ioos:station:USF.COMPS:BGC:1,2011-07-15T09:06:00Z,26.4040,-81.8810,0.053,1111122 
COMPS,ioos:station:USF.COMPS:BGC:1,2011-07-15T09:12:00Z,26.4040,-81.8810,0.039,1111122 
COMPS,ioos:station:USF.COMPS:BGC:1,2011-07-15T09:18:00Z,26.4040,-81.8810,0.042,1111122 
COMPS,ioos:station:USF.COMPS:BGC:1,2011-07-15T09:24:00Z,26.4040,-81.8810,0.036,1111122 
COMPS,ioos:station:USF.COMPS:BGC:1,2011-07-15T09:30:00Z,26.4040,-81.8810,0.024,1111122 
COMPS,ioos:station:USF.COMPS:BGC:1,2011-07-15T09:36:00Z,26.4040,-81.8810,0.019,1111122 
COMPS,ioos:station:USF.COMPS:BGC:1,2011-07-15T09:42:00Z,26.4040,-81.8810,0.015,1111122 
COMPS,ioos:station:USF.COMPS:BGC:1,2011-07-15T09:48:00Z,26.4040,-81.8810,0.009,1111122 
COMPS,ioos:station:USF.COMPS:BGC:1,2011-07-15T09:54:00Z,26.4040,-81.8810,-0.001,1111122 
COMPS,ioos:station:USF.COMPS:BGC:1,2011-07-15T10:00:00Z,26.4040,-81.8810,-0.016,1111122 
COMPS,ioos:station:USF.COMPS:BGC:1,2011-07-15T10:06:00Z,26.4040,-81.8810,-0.014,1111122 
COMPS,ioos:station:USF.COMPS:BGC:1,2011-07-15T10:12:00Z,26.4040,-81.8810,-0.024,1111122 
COMPS,ioos:station:USF.COMPS:BGC:1,2011-07-15T10:18:00Z,26.4040,-81.8810,-0.024,1111122 
COMPS,ioos:station:USF.COMPS:BGC:1,2011-07-15T10:24:00Z,26.4040,-81.8810,-0.039,1111122 
COMPS,ioos:station:USF.COMPS:BGC:1,2011-07-15T10:30:00Z,26.4040,-81.8810,-0.046,1111122 
COMPS,ioos:station:USF.COMPS:BGC:1,2011-07-15T10:36:00Z,26.4040,-81.8810,-0.044,1111122 
COMPS,ioos:station:USF.COMPS:BGC:1,2011-07-15T10:42:00Z,26.4040,-81.8810,-0.041,1111122 
COMPS,ioos:station:USF.COMPS:BGC:1,2011-07-15T10:48:00Z,26.4040,-81.8810,-0.048,1111122 
COMPS,ioos:station:USF.COMPS:BGC:1,2011-07-15T10:54:00Z,26.4040,-81.8810,-0.058,1111122 
COMPS,ioos:station:USF.COMPS:BGC:1,2011-07-15T11:00:00Z,26.4040,-81.8810,-0.049,1111122 
COMPS,ioos:station:USF.COMPS:BGC:1,2011-07-15T11:06:00Z,26.4040,-81.8810,-0.056,1111122 
COMPS,ioos:station:USF.COMPS:BGC:1,2011-07-15T11:12:00Z,26.4040,-81.8810,-0.052,1111122 
COMPS,ioos:station:USF.COMPS:BGC:1,2011-07-15T11:18:00Z,26.4040,-81.8810,-0.064,1111122 
COMPS,ioos:station:USF.COMPS:BGC:1,2011-07-15T11:24:00Z,26.4040,-81.8810,-0.059,1111122 
COMPS,ioos:station:USF.COMPS:BGC:1,2011-07-15T11:30:00Z,26.4040,-81.8810,-0.056,1111122 
COMPS,ioos:station:USF.COMPS:BGC:1,2011-07-15T11:36:00Z,26.4040,-81.8810,-0.064,1111122 
COMPS,ioos:station:USF.COMPS:BGC:1,2011-07-15T11:42:00Z,26.4040,-81.8810,-0.072,1111122 
COMPS,ioos:station:USF.COMPS:BGC:1,2011-07-15T11:48:00Z,26.4040,-81.8810,-0.059,1111122 
COMPS,ioos:station:USF.COMPS:BGC:1,2011-07-15T11:54:00Z,26.4040,-81.8810,-0.064,1111122 
COMPS,ioos:station:USF.COMPS:BGC:1,2011-07-15T12:00:00Z,26.4040,-81.8810,-0.069,1111122 
COMPS,ioos:station:USF.COMPS:BGC:1,2011-07-15T12:06:00Z,26.4040,-81.8810,-0.046,1111122 
COMPS,ioos:station:USF.COMPS:BGC:1,2011-07-15T12:12:00Z,26.4040,-81.8810,-0.054,1111122 
COMPS,ioos:station:USF.COMPS:BGC:1,2011-07-15T12:18:00Z,26.4040,-81.8810,-0.046,1111122 
COMPS,ioos:station:USF.COMPS:BGC:1,2011-07-15T12:24:00Z,26.4040,-81.8810,-0.036,1111122 
COMPS,ioos:station:USF.COMPS:BGC:1,2011-07-15T12:30:00Z,26.4040,-81.8810,-0.021,1111122 
COMPS,ioos:station:USF.COMPS:BGC:1,2011-07-15T12:36:00Z,26.4040,-81.8810,-0.035,1111122 
COMPS,ioos:station:USF.COMPS:BGC:1,2011-07-15T12:42:00Z,26.4040,-81.8810,-0.021,1111122 
COMPS,ioos:station:USF.COMPS:BGC:1,2011-07-15T12:48:00Z,26.4040,-81.8810,-0.005,1111122 
COMPS,ioos:station:USF.COMPS:BGC:1,2011-07-15T12:54:00Z,26.4040,-81.8810,0.005,1111122 
COMPS,ioos:station:USF.COMPS:BGC:1,2011-07-15T13:00:00Z,26.4040,-81.8810,0.008,1111122 
COMPS,ioos:station:USF.COMPS:BGC:1,2011-07-15T13:06:00Z,26.4040,-81.8810,0.023,1111122 
COMPS,ioos:station:USF.COMPS:BGC:1,2011-07-15T13:12:00Z,26.4040,-81.8810,0.04,1111122 
COMPS,ioos:station:USF.COMPS:BGC:1,2011-07-15T13:18:00Z,26.4040,-81.8810,0.05,1111122 
COMPS,ioos:station:USF.COMPS:BGC:1,2011-07-15T13:24:00Z,26.4040,-81.8810,0.053,1111122 
COMPS,ioos:station:USF.COMPS:BGC:1,2011-07-15T13:30:00Z,26.4040,-81.8810,0.07,1111122 
COMPS,ioos:station:USF.COMPS:BGC:1,2011-07-15T13:36:00Z,26.4040,-81.8810,0.087,1111122 
COMPS,ioos:station:USF.COMPS:BGC:1,2011-07-15T13:42:00Z,26.4040,-81.8810,0.1,1111122 
COMPS,ioos:station:USF.COMPS:BGC:1,2011-07-15T13:48:00Z,26.4040,-81.8810,0.11,1111122 
COMPS,ioos:station:USF.COMPS:BGC:1,2011-07-15T13:54:00Z,26.4040,-81.8810,0.134,1111122 
COMPS,ioos:station:USF.COMPS:BGC:1,2011-07-15T14:00:00Z,26.4040,-81.8810,0.139,1111122 
COMPS,ioos:station:USF.COMPS:BGC:1,2011-07-15T14:06:00Z,26.4040,-81.8810,0.15,1111122 
COMPS,ioos:station:USF.COMPS:BGC:1,2011-07-15T14:12:00Z,26.4040,-81.8810,0.163,1111122 
COMPS,ioos:station:USF.COMPS:BGC:1,2011-07-15T14:18:00Z,26.4040,-81.8810,0.188,1111122 
COMPS,ioos:station:USF.COMPS:BGC:1,2011-07-15T14:24:00Z,26.4040,-81.8810,0.194,1111122 
COMPS,ioos:station:USF.COMPS:BGC:1,2011-07-15T14:30:00Z,26.4040,-81.8810,0.21,1111122 
COMPS,ioos:station:USF.COMPS:BGC:1,2011-07-15T14:36:00Z,26.4040,-81.8810,0.224,1111122 
COMPS,ioos:station:USF.COMPS:BGC:1,2011-07-15T14:42:00Z,26.4040,-81.8810,0.238,1111122 
COMPS,ioos:station:USF.COMPS:BGC:1,2011-07-15T14:48:00Z,26.4040,-81.8810,0.255,1111122 
COMPS,ioos:station:USF.COMPS:BGC:1,2011-07-15T14:54:00Z,26.4040,-81.8810,0.269,1111122 
COMPS,ioos:station:USF.COMPS:BGC:1,2011-07-15T15:00:00Z,26.4040,-81.8810,0.278,1111122 
COMPS,ioos:station:USF.COMPS:BGC:1,2011-07-15T15:06:00Z,26.4040,-81.8810,0.287,1111122 
COMPS,ioos:station:USF.COMPS:BGC:1,2011-07-15T15:12:00Z,26.4040,-81.8810,0.306,1111122 
COMPS,ioos:station:USF.COMPS:BGC:1,2011-07-15T15:18:00Z,26.4040,-81.8810,0.308,1111122 
COMPS,ioos:station:USF.COMPS:BGC:1,2011-07-15T15:24:00Z,26.4040,-81.8810,0.326,1111122 
COMPS,ioos:station:USF.COMPS:BGC:1,2011-07-15T15:30:00Z,26.4040,-81.8810,0.329,1111122 
COMPS,ioos:station:USF.COMPS:BGC:1,2011-07-15T15:36:00Z,26.4040,-81.8810,0.35,1111122 
COMPS,ioos:station:USF.COMPS:BGC:1,2011-07-15T15:42:00Z,26.4040,-81.8810,0.357,1111122 
COMPS,ioos:station:USF.COMPS:BGC:1,2011-07-15T15:48:00Z,26.4040,-81.8810,0.36,1111122 
COMPS,ioos:station:USF.COMPS:BGC:1,2011-07-15T15:54:00Z,26.4040,-81.8810,0.37,1111122 
COMPS,ioos:station:USF.COMPS:BGC:1,2011-07-15T16:00:00Z,26.4040,-81.8810,0.38,1111122 
COMPS,ioos:station:USF.COMPS:BGC:1,2011-07-15T16:06:00Z,26.4040,-81.8810,0.391,1111122 
COMPS,ioos:station:USF.COMPS:BGC:1,2011-07-15T16:12:00Z,26.4040,-81.8810,0.39,1111122 
COMPS,ioos:station:USF.COMPS:BGC:1,2011-07-15T16:18:00Z,26.4040,-81.8810,0.396,1111122 
COMPS,ioos:station:USF.COMPS:BGC:1,2011-07-15T16:24:00Z,26.4040,-81.8810,0.405,1111122 
COMPS,ioos:station:USF.COMPS:BGC:1,2011-07-15T16:30:00Z,26.4040,-81.8810,0.411,1111122 
COMPS,ioos:station:USF.COMPS:BGC:1,2011-07-15T16:36:00Z,26.4040,-81.8810,0.41,1111122 
COMPS,ioos:station:USF.COMPS:BGC:1,2011-07-15T16:42:00Z,26.4040,-81.8810,0.416,1111122 
COMPS,ioos:station:USF.COMPS:BGC:1,2011-07-15T16:48:00Z,26.4040,-81.8810,0.421,1111122 
COMPS,ioos:station:USF.COMPS:BGC:1,2011-07-15T16:54:00Z,26.4040,-81.8810,0.417,1111122 
COMPS,ioos:station:USF.COMPS:BGC:1,2011-07-15T17:00:00Z,26.4040,-81.8810,0.424,1111122 
COMPS,ioos:station:USF.COMPS:BGC:1,2011-07-15T17:06:00Z,26.4040,-81.8810,0.418,1111122 
COMPS,ioos:station:USF.COMPS:BGC:1,2011-07-15T17:12:00Z,26.4040,-81.8810,0.427,1111122 
COMPS,ioos:station:USF.COMPS:BGC:1,2011-07-15T17:18:00Z,26.4040,-81.8810,0.431,1111122 
COMPS,ioos:station:USF.COMPS:BGC:1,2011-07-15T17:24:00Z,26.4040,-81.8810,0.428,1111122 
COMPS,ioos:station:USF.COMPS:BGC:1,2011-07-15T17:30:00Z,26.4040,-81.8810,0.423,1111122 
COMPS,ioos:station:USF.COMPS:BGC:1,2011-07-15T17:36:00Z,26.4040,-81.8810,0.428,1111122 
COMPS,ioos:station:USF.COMPS:BGC:1,2011-07-15T17:42:00Z,26.4040,-81.8810,0.424,1111122 
COMPS,ioos:station:USF.COMPS:BGC:1,2011-07-15T17:48:00Z,26.4040,-81.8810,0.418,1111122 
COMPS,ioos:station:USF.COMPS:BGC:1,2011-07-15T17:54:00Z,26.4040,-81.8810,0.419,1111122 
COMPS,ioos:station:USF.COMPS:BGC:1,2011-07-15T18:00:00Z,26.4040,-81.8810,0.413,1111122 
COMPS,ioos:station:USF.COMPS:BGC:1,2011-07-15T18:06:00Z,26.4040,-81.8810,0.393,1111122 
COMPS,ioos:station:USF.COMPS:BGC:1,2011-07-15T18:12:00Z,26.4040,-81.8810,0.398,1111122 
COMPS,ioos:station:USF.COMPS:BGC:1,2011-07-15T18:18:00Z,26.4040,-81.8810,0.392,1111122 
COMPS,ioos:station:USF.COMPS:BGC:1,2011-07-15T18:24:00Z,26.4040,-81.8810,0.379,1111122 
COMPS,ioos:station:USF.COMPS:BGC:1,2011-07-15T18:30:00Z,26.4040,-81.8810,0.361,1111122 
COMPS,ioos:station:USF.COMPS:BGC:1,2011-07-15T18:36:00Z,26.4040,-81.8810,0.36,1111122 
COMPS,ioos:station:USF.COMPS:BGC:1,2011-07-15T18:42:00Z,26.4040,-81.8810,0.342,1111122 
COMPS,ioos:station:USF.COMPS:BGC:1,2011-07-15T18:48:00Z,26.4040,-81.8810,0.325,1111122 
COMPS,ioos:station:USF.COMPS:BGC:1,2011-07-15T18:54:00Z,26.4040,-81.8810,0.311,1111122 
COMPS,ioos:station:USF.COMPS:BGC:1,2011-07-15T19:00:00Z,26.4040,-81.8810,0.3,1111122 
COMPS,ioos:station:USF.COMPS:BGC:1,2011-07-15T19:06:00Z,26.4040,-81.8810,0.278,1111122 
COMPS,ioos:station:USF.COMPS:BGC:1,2011-07-15T19:12:00Z,26.4040,-81.8810,0.265,1111122 
COMPS,ioos:station:USF.COMPS:BGC:1,2011-07-15T19:18:00Z,26.4040,-81.8810,0.25,1111122 
COMPS,ioos:station:USF.COMPS:BGC:1,2011-07-15T19:24:00Z,26.4040,-81.8810,0.246,1111122 
COMPS,ioos:station:USF.COMPS:BGC:1,2011-07-15T19:30:00Z,26.4040,-81.8810,0.23,1111122 
COMPS,ioos:station:USF.COMPS:BGC:1,2011-07-15T19:36:00Z,26.4040,-81.8810,0.212,1111122 
COMPS,ioos:station:USF.COMPS:BGC:1,2011-07-15T19:42:00Z,26.4040,-81.8810,0.196,1111122 
COMPS,ioos:station:USF.COMPS:BGC:1,2011-07-15T19:48:00Z,26.4040,-81.8810,0.171,1111122 
COMPS,ioos:station:USF.COMPS:BGC:1,2011-07-15T19:54:00Z,26.4040,-81.8810,0.167,1111122 
COMPS,ioos:station:USF.COMPS:BGC:1,2011-07-15T20:00:00Z,26.4040,-81.8810,0.144,1111122 
COMPS,ioos:station:USF.COMPS:BGC:1,2011-07-15T20:06:00Z,26.4040,-81.8810,0.129,1111122 
COMPS,ioos:station:USF.COMPS:BGC:1,2011-07-15T20:12:00Z,26.4040,-81.8810,0.116,1111122 
COMPS,ioos:station:USF.COMPS:BGC:1,2011-07-15T20:18:00Z,26.4040,-81.8810,0.102,1111122 
COMPS,ioos:station:USF.COMPS:BGC:1,2011-07-15T20:24:00Z,26.4040,-81.8810,0.084,1111122 
COMPS,ioos:station:USF.COMPS:BGC:1,2011-07-15T20:30:00Z,26.4040,-81.8810,0.066,1111122 
COMPS,ioos:station:USF.COMPS:BGC:1,2011-07-15T20:36:00Z,26.4040,-81.8810,0.058,1111122 
COMPS,ioos:station:USF.COMPS:BGC:1,2011-07-15T20:42:00Z,26.4040,-81.8810,0.032,1111122 
COMPS,ioos:station:USF.COMPS:BGC:1,2011-07-15T20:48:00Z,26.4040,-81.8810,0.024,1111122 
COMPS,ioos:station:USF.COMPS:BGC:1,2011-07-15T20:54:00Z,26.4040,-81.8810,0.013,1111122 
COMPS,ioos:station:USF.COMPS:BGC:1,2011-07-15T22:00:00Z,26.4040,-81.8810,-0.158,1111122 
COMPS,ioos:station:USF.COMPS:BGC:1,2011-07-15T22:06:00Z,26.4040,-81.8810,-0.171,1111122 
COMPS,ioos:station:USF.COMPS:BGC:1,2011-07-15T22:12:00Z,26.4040,-81.8810,-0.188,1111122 
COMPS,ioos:station:USF.COMPS:BGC:1,2011-07-15T22:18:00Z,26.4040,-81.8810,-0.205,1111122 
COMPS,ioos:station:USF.COMPS:BGC:1,2011-07-15T22:24:00Z,26.4040,-81.8810,-0.226,1111122 
COMPS,ioos:station:USF.COMPS:BGC:1,2011-07-15T22:30:00Z,26.4040,-81.8810,-0.239,1111122 
COMPS,ioos:station:USF.COMPS:BGC:1,2011-07-15T22:36:00Z,26.4040,-81.8810,-0.26,1111122 
COMPS,ioos:station:USF.COMPS:BGC:1,2011-07-15T22:42:00Z,26.4040,-81.8810,-0.27,1111122 
COMPS,ioos:station:USF.COMPS:BGC:1,2011-07-15T22:48:00Z,26.4040,-81.8810,-0.286,1111122 
COMPS,ioos:station:USF.COMPS:BGC:1,2011-07-15T22:54:00Z,26.4040,-81.8810,-0.301,1111122 
COMPS,ioos:station:USF.COMPS:BGC:1,2011-07-15T23:00:00Z,26.4040,-81.8810,-0.318,1111122 
COMPS,ioos:station:USF.COMPS:BGC:1,2011-07-15T23:06:00Z,26.4040,-81.8810,-0.334,1111122 
COMPS,ioos:station:USF.COMPS:BGC:1,2011-07-15T23:12:00Z,26.4040,-81.8810,-0.355,1111122 
COMPS,ioos:station:USF.COMPS:BGC:1,2011-07-15T23:18:00Z,26.4040,-81.8810,-0.364,1111122 
COMPS,ioos:station:USF.COMPS:BGC:1,2011-07-15T23:24:00Z,26.4040,-81.8810,-0.374,1111122 
COMPS,ioos:station:USF.COMPS:BGC:1,2011-07-15T23:30:00Z,26.4040,-81.8810,-0.386,1111122 
COMPS,ioos:station:USF.COMPS:BGC:1,2011-07-15T23:36:00Z,26.4040,-81.8810,-0.4,1111122 
COMPS,ioos:station:USF.COMPS:BGC:1,2011-07-15T23:42:00Z,26.4040,-81.8810,-0.408,1111122 
COMPS,ioos:station:USF.COMPS:BGC:1,2011-07-15T23:48:00Z,26.4040,-81.8810,-0.411,1111122 
COMPS,ioos:station:USF.COMPS:BGC:1,2011-07-15T23:54:00Z,26.4040,-81.8810,-0.422,1111122 